Hickory, NC

10:07 PM EDT on July 24, 2017 (GMT -0400)
Hickory Regional

Weather History for KHKY - March, 2013

Change the Weather History Date:

Tuesday, March 26, 2013

  Actual Average Record
Temperature  
Mean Temperature 37 °F -  
Max Temperature 46 °F 62 °F 81 °F (1967)
Min Temperature 28 °F 37 °F 19 °F (1955)
Degree Days  
Heating Degree Days 28    
Moisture  
Dew Point 21 °F    
Average Humidity 54    
Maximum Humidity 72    
Minimum Humidity 39    
Precipitation  
Precipitation 0.00 in - - ()
Sea Level Pressure  
Sea Level Pressure 29.97 in    
Wind  
Wind Speed 7 mph (WNW)    
Max Wind Speed 14 mph    
Max Gust Speed 22 mph    
Visibility 10 miles    
Events      
Averages and records for this station are not official NWS values.
T = Trace of Precipitation, MM = Missing Value Source: NWS Daily Summary

Daily Weather History Graph

Daily Weather History Graph

Search for Another Location

Airport or City:

Trip Planner

Search our weather history database for the weather conditions in past years. The results will help you decide how hot, cold, wet, or windy it might be!

Date:

Astronomy

Mar. 26, 2013 Rise Set
Actual Time 7:20 AM EDT 7:42 PM EDT
Civil Twilight 6:54 AM EDT 8:08 PM EDT
Nautical Twilight 6:24 AM EDT 8:38 PM EDT
Astronomical Twilight 5:54 AM EDT 9:08 PM EDT
Moon 7:17 PM EDT (3/26) 6:35 AM EDT (3/26)
Length of Visible Light 13h 13m
Length of Day
12h 22m
Waxing Gibbous, 99% of the Moon is Illuminated
Mar 26
Waxing Gibbous
Mar 27
Full
Apr 3
Last Quarter
Apr 10
New
Apr 18
First Quarter

Hourly Weather History & Observations

Time (EDT) Temp. Windchill Dew Point Humidity Pressure Visibility Wind Dir Wind Speed Gust Speed Precip Events Conditions
12:53 AM 33.1 °F 26.9 °F 21.9 °F 64% 29.85 in 10.0 mi WNW 6.9 mph - N/A   Mostly Cloudy
1:53 AM 30.0 °F 23.2 °F 21.9 °F 72% 29.86 in 10.0 mi WSW 6.9 mph - N/A   Mostly Cloudy
2:53 AM 32.0 °F 27.5 °F 21.9 °F 66% 29.86 in 10.0 mi West 4.6 mph - N/A   Mostly Cloudy
3:53 AM 32.0 °F 26.4 °F 21.9 °F 66% 29.86 in 10.0 mi West 5.8 mph - N/A   Overcast
4:53 AM 30.9 °F - 21.0 °F 67% 29.86 in 10.0 mi Calm Calm - N/A   Mostly Cloudy
5:53 AM 30.0 °F 26.5 °F 21.0 °F 69% 29.86 in 10.0 mi WSW 3.5 mph - N/A   Clear
6:53 AM 30.0 °F 26.5 °F 19.9 °F 66% 29.88 in 10.0 mi WNW 3.5 mph - N/A   Clear
7:53 AM 28.9 °F 25.2 °F 21.0 °F 72% 29.90 in 10.0 mi WSW 3.5 mph - N/A   Partly Cloudy
8:53 AM 36.0 °F 32.1 °F 23.0 °F 59% 29.92 in 10.0 mi West 4.6 mph - N/A   Clear
9:53 AM 39.9 °F 33.9 °F 21.9 °F 49% 29.94 in 10.0 mi NW 9.2 mph 16.1 mph N/A   Clear
10:53 AM 41.0 °F 34.3 °F 21.0 °F 45% 29.96 in 10.0 mi NW 11.5 mph 16.1 mph N/A   Overcast
11:53 AM 46.0 °F 39.9 °F 21.9 °F 39% 29.97 in 10.0 mi NNW 13.8 mph 21.9 mph N/A   Scattered Clouds
12:53 PM 43.0 °F 37.7 °F 21.0 °F 42% 29.98 in 10.0 mi North 9.2 mph - N/A   Overcast
1:53 PM 44.1 °F 37.7 °F 21.9 °F 42% 29.99 in 10.0 mi NNW 12.7 mph 18.4 mph N/A   Overcast
2:53 PM 43.0 °F 36.8 °F 21.0 °F 42% 29.99 in 10.0 mi NW 11.5 mph - N/A   Overcast
3:53 PM 44.1 °F 38.6 °F 21.9 °F 42% 29.99 in 10.0 mi WNW 10.4 mph - N/A   Overcast
4:53 PM 44.1 °F 37.7 °F 21.9 °F 42% 30.01 in 10.0 mi NNW 12.7 mph 20.7 mph N/A   Overcast
5:53 PM 43.0 °F 36.8 °F 21.9 °F 43% 30.03 in 10.0 mi WNW 11.5 mph 18.4 mph N/A   Overcast
6:53 PM 41.0 °F 36.4 °F 23.0 °F 49% 30.06 in 10.0 mi NNW 6.9 mph - N/A   Overcast
7:53 PM 39.9 °F 33.9 °F 21.9 °F 49% 30.09 in 10.0 mi NW 9.2 mph 19.6 mph N/A   Overcast
8:53 PM 39.0 °F 34.0 °F 21.9 °F 50% 30.11 in 10.0 mi NW 6.9 mph - N/A   Overcast
9:53 PM 37.0 °F 31.0 °F 19.9 °F 50% 30.13 in 10.0 mi NW 8.1 mph - N/A   Clear
10:53 PM 35.1 °F - 19.9 °F 54% 30.15 in 10.0 mi Calm Calm - N/A   Mostly Cloudy
11:53 PM 33.1 °F - 19.9 °F 59% 30.15 in 10.0 mi Calm Calm - N/A   Scattered Clouds